TimeCDT,TemperatureF,Dew PointF,Humidity,Sea Level PressureIn,VisibilityMPH,Wind Direction,Wind SpeedMPH,Gust SpeedMPH,PrecipitationIn,Events,Conditions,WindDirDegrees,DateUTC
12:15 AM,64.4,41.0,42,29.94,10.0,North,9.2,-,N/A,,Scattered Clouds,350,2012-10-01 05:15:00
12:35 AM,64.4,37.4,37,29.94,10.0,North,16.1,21.9,N/A,,Mostly Cloudy,350,2012-10-01 05:35:00
12:55 AM,62.6,37.4,39,29.94,10.0,NNW,17.3,24.2,N/A,,Mostly Cloudy,340,2012-10-01 05:55:00
1:15 AM,62.6,37.4,39,29.94,10.0,NNW,18.4,21.9,N/A,,Scattered Clouds,340,2012-10-01 06:15:00
1:35 AM,62.6,37.4,39,29.95,10.0,North,16.1,23.0,N/A,,Clear,350,2012-10-01 06:35:00
1:55 AM,60.8,35.6,39,29.95,10.0,NNW,15.0,20.7,N/A,,Clear,340,2012-10-01 06:55:00
2:15 AM,60.8,35.6,39,29.96,10.0,North,13.8,19.6,N/A,,Clear,350,2012-10-01 07:15:00
2:35 AM,59.0,35.6,42,29.96,10.0,NNW,12.7,-,N/A,,Clear,340,2012-10-01 07:35:00
2:55 AM,59.0,35.6,42,29.97,10.0,NNW,12.7,-,N/A,,Clear,330,2012-10-01 07:55:00
3:15 AM,59.0,35.6,42,29.97,10.0,NNW,12.7,19.6,N/A,,Clear,340,2012-10-01 08:15:00
3:35 AM,57.2,35.6,44,29.99,10.0,NNW,12.7,18.4,N/A,,Clear,330,2012-10-01 08:35:00
3:55 AM,55.4,35.6,47,29.99,10.0,NNW,16.1,21.9,N/A,,Clear,340,2012-10-01 08:55:00
4:15 AM,55.4,35.6,47,29.99,10.0,NNW,11.5,-,N/A,,Clear,340,2012-10-01 09:15:00
4:35 AM,53.6,35.6,51,30.00,10.0,NNW,12.7,17.3,N/A,,Clear,340,2012-10-01 09:35:00
4:55 AM,55.4,35.6,47,30.00,10.0,North,11.5,-,N/A,,Mostly Cloudy,350,2012-10-01 09:55:00
5:15 AM,53.6,35.6,51,30.01,10.0,NNW,9.2,-,N/A,,Scattered Clouds,330,2012-10-01 10:15:00
5:35 AM,51.8,35.6,54,30.01,10.0,NNW,9.2,-,N/A,,Clear,330,2012-10-01 10:35:00
5:55 AM,51.8,35.6,54,30.01,10.0,NNW,5.8,-,N/A,,Clear,330,2012-10-01 10:55:00
6:15 AM,50.0,35.6,58,30.01,10.0,NNW,4.6,-,N/A,,Clear,330,2012-10-01 11:15:00
6:35 AM,51.8,37.4,58,30.02,10.0,NW,8.1,-,N/A,,Mostly Cloudy,320,2012-10-01 11:35:00
6:55 AM,51.8,35.6,54,30.03,10.0,NNW,8.1,-,N/A,,Scattered Clouds,330,2012-10-01 11:55:00
7:15 AM,53.6,37.4,54,30.04,10.0,NNW,9.2,-,N/A,,Mostly Cloudy,330,2012-10-01 12:15:00
7:35 AM,55.4,37.4,51,30.04,10.0,NNW,11.5,-,N/A,,Overcast,330,2012-10-01 12:35:00
7:55 AM,55.4,37.4,51,30.04,10.0,NW,10.4,-,N/A,,Overcast,320,2012-10-01 12:55:00
8:15 AM,55.4,39.2,54,30.05,10.0,NNW,10.4,17.3,N/A,,Overcast,330,2012-10-01 13:15:00
8:35 AM,55.4,41.0,58,30.06,10.0,NNW,11.5,-,N/A,,Overcast,330,2012-10-01 13:35:00
8:55 AM,55.4,41.0,58,30.06,10.0,NNW,11.5,-,N/A,,Overcast,340,2012-10-01 13:55:00
9:15 AM,57.2,39.2,51,30.06,10.0,North,11.5,17.3,N/A,,Overcast,350,2012-10-01 14:15:00
9:35 AM,59.0,39.2,48,30.07,10.0,NNW,15.0,19.6,N/A,,Mostly Cloudy,330,2012-10-01 14:35:00
9:55 AM,60.8,39.2,45,30.08,10.0,NNW,15.0,-,N/A,,Scattered Clouds,340,2012-10-01 14:55:00
10:15 AM,60.8,37.4,42,30.08,10.0,NNW,18.4,27.6,N/A,,Clear,330,2012-10-01 15:15:00
10:35 AM,60.8,37.4,42,30.08,10.0,NNW,15.0,25.3,N/A,,Clear,340,2012-10-01 15:35:00
10:55 AM,62.6,37.4,39,30.08,10.0,NNW,13.8,23.0,N/A,,Clear,340,2012-10-01 15:55:00
11:15 AM,62.6,35.6,37,30.08,10.0,NNW,19.6,24.2,N/A,,Clear,340,2012-10-01 16:15:00
11:35 AM,64.4,33.8,32,30.08,10.0,North,15.0,25.3,N/A,,Clear,350,2012-10-01 16:35:00
11:55 AM,64.4,32.0,30,30.08,10.0,North,19.6,25.3,N/A,,Clear,350,2012-10-01 16:55:00
12:15 PM,64.4,32.0,30,30.07,10.0,North,19.6,28.8,N/A,,Clear,360,2012-10-01 17:15:00
12:35 PM,64.4,32.0,30,30.06,10.0,North,20.7,26.5,N/A,,Clear,350,2012-10-01 17:35:00
1:15 PM,66.2,32.0,28,30.06,10.0,NNW,15.0,26.5,N/A,,Clear,340,2012-10-01 18:15:00
1:35 PM,68.0,28.4,23,30.05,10.0,North,24.2,28.8,N/A,,Clear,360,2012-10-01 18:35:00
1:55 PM,68.0,28.4,23,30.04,10.0,NNW,16.1,25.3,N/A,,Clear,340,2012-10-01 18:55:00
2:15 PM,68.0,28.4,23,30.04,10.0,North,18.4,28.8,N/A,,Clear,360,2012-10-01 19:15:00
2:35 PM,68.0,28.4,23,30.04,10.0,NNW,18.4,24.2,N/A,,Clear,340,2012-10-01 19:35:00
2:55 PM,68.0,26.6,21,30.03,10.0,North,20.7,31.1,N/A,,Clear,350,2012-10-01 19:55:00
3:15 PM,68.0,26.6,21,30.03,10.0,North,21.9,26.5,N/A,,Clear,350,2012-10-01 20:15:00
3:35 PM,68.0,23.0,18,30.03,10.0,North,19.6,25.3,N/A,,Clear,360,2012-10-01 20:35:00
3:55 PM,68.0,23.0,18,30.02,10.0,North,13.8,23.0,N/A,,Clear,360,2012-10-01 20:55:00
4:15 PM,68.0,23.0,18,30.02,10.0,North,16.1,24.2,N/A,,Clear,350,2012-10-01 21:15:00
4:35 PM,68.0,19.4,16,30.02,10.0,North,19.6,25.3,N/A,,Clear,350,2012-10-01 21:35:00
4:55 PM,68.0,21.2,17,30.02,10.0,North,15.0,25.3,N/A,,Clear,350,2012-10-01 21:55:00
5:15 PM,68.0,21.2,17,30.02,10.0,NNW,13.8,18.4,N/A,,Clear,330,2012-10-01 22:15:00
5:35 PM,66.2,21.2,18,30.02,10.0,North,17.3,25.3,N/A,,Clear,360,2012-10-01 22:35:00
5:55 PM,64.4,23.0,21,30.02,10.0,NNW,12.7,19.6,N/A,,Clear,340,2012-10-01 22:55:00
6:15 PM,64.4,23.0,21,30.01,10.0,North,11.5,17.3,N/A,,Clear,350,2012-10-01 23:15:00
6:35 PM,62.6,23.0,22,30.01,10.0,North,8.1,-,N/A,,Clear,350,2012-10-01 23:35:00
6:55 PM,60.8,24.8,25,30.01,10.0,North,6.9,-,N/A,,Clear,350,2012-10-01 23:55:00
7:15 PM,60.8,24.8,25,30.01,10.0,NNW,4.6,-,N/A,,Clear,340,2012-10-02 00:15:00
7:55 PM,51.8,23.0,33,30.01,10.0,NW,4.6,-,N/A,,Clear,320,2012-10-02 00:55:00
8:15 PM,53.6,24.8,33,30.02,10.0,North,3.5,-,N/A,,Clear,350,2012-10-02 01:15:00
8:35 PM,51.8,26.6,38,30.01,10.0,Calm,Calm,-,N/A,,Clear,0,2012-10-02 01:35:00
8:55 PM,53.6,24.8,33,30.01,10.0,Calm,Calm,-,N/A,,Clear,0,2012-10-02 01:55:00
9:15 PM,51.8,24.8,35,30.01,10.0,Calm,Calm,-,N/A,,Clear,0,2012-10-02 02:15:00
9:35 PM,48.2,23.0,37,30.01,10.0,West,4.6,-,N/A,,Clear,280,2012-10-02 02:35:00
9:55 PM,44.6,19.4,37,30.01,10.0,Calm,Calm,-,N/A,,Clear,0,2012-10-02 02:55:00
10:15 PM,44.6,28.4,53,30.01,10.0,Calm,Calm,-,N/A,,Clear,0,2012-10-02 03:15:00
10:35 PM,42.8,24.8,49,30.01,10.0,Calm,Calm,-,N/A,,Clear,0,2012-10-02 03:35:00
10:55 PM,41.0,23.0,49,30.00,10.0,Calm,Calm,-,N/A,,Clear,0,2012-10-02 03:55:00
11:15 PM,41.0,24.8,53,30.00,7.0,Calm,Calm,-,N/A,,Clear,0,2012-10-02 04:15:00
11:35 PM,42.8,30.2,61,30.00,10.0,Calm,Calm,-,N/A,,Clear,0,2012-10-02 04:35:00
11:55 PM,41.0,23.0,49,29.99,10.0,Calm,Calm,-,N/A,,Clear,0,2012-10-02 04:55:00